Tracking 25378 objects as of 22-Jan-2022
HD Live streaming from Space Station
objects crossing your sky now

ONEWEB-0061

Track ONEWEB-0061 now!
10-day predictions
ONEWEB-0061 is classified as:


NORAD ID: 45428
Int'l Code: 2020-020E
Perigee: 1,223.7 km
Apogee: 1,225.9 km
Inclination: 87.9 °
Period: 109.8 minutes
Semi major axis: 7595 km
RCS: Unknown
Launch date: March 21, 2020
Source: United Kingdom (UK)
Launch site: TYURATAM MISSILE AND SPACE COMPLEX (TTMTR)
aabbcc
Your satellite tracking list
Your tracking list is empty




NASA's NSSDC Master Catalog

Two Line Element Set (TLE):
1 45428U 20020E   22022.28119304 -.00000347  00000-0 -10139-2 0  9995
2 45428  87.8916 340.5441 0001448  72.5662 287.5624 13.11415636 92017
Source of the keplerian elements: AFSPC